,,Stat6,,Stat2,,Stat8,,Stat9,,Stat10,,Wind1,,Wind1,
time,status,PA1M_AVG,status,PR1M_SUM,status,RH1M_AVG,status,SR1M_AVG,status,TA1M_AVG,status,W1dAve1m,status,W1sAve1m,
2009-06-20, 00:00:00,VALID,917.632,VALID,0,VALID,97.5092,VALID,0,VALID,20.1189,VALID,158,VALID,0.835565,
2009-06-20, 00:01:00,VALID,917.62,VALID,0,VALID,97.691,VALID,0,VALID,20.1024,VALID,157,VALID,0.911258,
2009-06-20, 00:02:00,VALID,917.605,VALID,0,VALID,97.8881,VALID,0,VALID,20.1081,VALID,154,VALID,0.928544,
2009-06-20, 00:03:00,VALID,917.584,VALID,0,VALID,97.8245,VALID,-0.0169808,VALID,20.1244,VALID,152,VALID,1.01711,
2009-06-20, 00:04:00,VALID,917.597,VALID,0,VALID,97.6719,VALID,0,VALID,20.1309,VALID,153,VALID,1.12324,
2009-06-20, 00:05:00,VALID,917.586,VALID,0,VALID,97.6363,VALID,0.0169808,VALID,20.1179,VALID,151,VALID,0.925781,
2009-06-20, 00:06:00,VALID,917.581,VALID,0,VALID,97.6147,VALID,-0.0169808,VALID,20.1057,VALID,144,VALID,0.764931,
2009-06-20, 00:07:00,VALID,917.566,VALID,0,VALID,97.7177,VALID,0,VALID,20.0854,VALID,134,VALID,0.547433,
2009-06-20, 00:08:00,VALID,917.565,VALID,0,VALID,97.8868,VALID,0,VALID,20.0829,VALID,126,VALID,0.616997,
2009-06-20, 00:09:00,VALID,917.561,VALID,0,VALID,98.309,VALID,-0.0169808,VALID,20.1284,VALID,134,VALID,0.834821,
2009-06-20, 00:10:00,VALID,917.556,VALID,0,VALID,98.1119,VALID,0,VALID,20.0992,VALID,130,VALID,0.716463,
2009-06-20, 00:11:00,VALID,917.548,VALID,0,VALID,98.4095,VALID,-0.0169808,VALID,20.0857,VALID,131,VALID,0.848292,
2009-06-20, 00:12:00,VALID,917.537,VALID,0,VALID,98.6409,VALID,0,VALID,20.1017,VALID,130,VALID,1.11828,
2009-06-20, 00:13:00,VALID,917.519,VALID,0,VALID,98.749,VALID,0,VALID,20.1087,VALID,130,VALID,1.25036,
2009-06-20, 00:14:00,VALID,917.509,VALID,0,VALID,98.9003,VALID,0,VALID,20.1116,VALID,133,VALID,1.3949,
2009-06-20, 00:15:00,VALID,917.492,VALID,0,VALID,98.8342,VALID,0.0169808,VALID,20.0757,VALID,136,VALID,1.04581,
2009-06-20, 00:16:00,VALID,917.483,VALID,0,VALID,98.9067,VALID,0,VALID,20.0565,VALID,128,VALID,0.884549,
2009-06-20, 00:17:00,VALID,917.473,VALID,0,VALID,98.9944,VALID,0,VALID,20.0243,VALID,132,VALID,1.07734,
2009-06-20, 00:18:00,VALID,917.469,VALID,0,VALID,99.2627,VALID,0,VALID,20.0083,VALID,143,VALID,1.252,
2009-06-20, 00:19:00,VALID,917.469,VALID,0,VALID,99.5641,VALID,0,VALID,20.0108,VALID,129,VALID,0.931362,
2009-06-20, 00:20:00,VALID,917.462,VALID,0,VALID,99.6938,VALID,-0.0339617,VALID,20.0016,VALID,148,VALID,1.31372,
2009-06-20, 00:21:00,VALID,917.469,VALID,0,VALID,99.7904,VALID,-0.0169808,VALID,19.9624,VALID,144,VALID,1.06341,
2009-06-20, 00:22:00,VALID,917.465,VALID,0,VALID,99.9227,VALID,0,VALID,19.9202,VALID,168,VALID,1.13318,
2009-06-20, 00:23:00,VALID,917.451,VALID,0,VALID,100,VALID,0.0169808,VALID,19.8972,VALID,165,VALID,0.994336,
2009-06-20, 00:24:00,VALID,917.431,VALID,0,VALID,100,VALID,-0.0169808,VALID,19.8945,VALID,159,VALID,0.761719,
2009-06-20, 00:25:00,VALID,917.403,VALID,0,VALID,100,VALID,0,VALID,19.8813,VALID,147,VALID,0.59157,
2009-06-20, 00:26:00,VALID,917.382,VALID,0,VALID,100,VALID,0,VALID,19.865,VALID,158,VALID,1.08485,
2009-06-20, 00:27:00,VALID,917.371,VALID,0,VALID,100,VALID,-0.0339617,VALID,19.8391,VALID,153,VALID,0.849201,
2009-06-20, 00:28:00,VALID,917.369,VALID,0,VALID,100,VALID,-0.0339617,VALID,19.8296,VALID,152,VALID,0.928886,
2009-06-20, 00:29:00,VALID,917.379,VALID,0,VALID,100,VALID,0,VALID,19.8196,VALID,148,VALID,0.759266,
2009-06-20, 00:30:00,VALID,917.394,VALID,0,VALID,100,VALID,0,VALID,19.7931,VALID,149,VALID,0.712081,
2009-06-20, 00:31:00,VALID,917.397,VALID,0,VALID,100,VALID,0,VALID,19.7936,VALID,135,VALID,0.933866,
2009-06-20, 00:32:00,VALID,917.419,VALID,0,VALID,100,VALID,-0.0169808,VALID,19.7612,VALID,137,VALID,0.843164,
2009-06-20, 00:33:00,VALID,917.413,VALID,0,VALID,100,VALID,0,VALID,19.7577,VALID,131,VALID,0.759993,
2009-06-20, 00:34:00,VALID,917.408,VALID,0,VALID,100,VALID,0,VALID,19.7679,VALID,126,VALID,0.73601,
2009-06-20, 00:35:00,VALID,917.402,VALID,0,VALID,100,VALID,0,VALID,19.7707,VALID,124,VALID,0.643643,
2009-06-20, 00:36:00,VALID,917.391,VALID,0,VALID,100,VALID,0,VALID,19.7877,VALID,124,VALID,0.599382,
2009-06-20, 00:37:00,VALID,917.381,VALID,0,VALID,100,VALID,0,VALID,19.7739,VALID,124,VALID,0.420047,
2009-06-20, 00:38:00,VALID,917.387,VALID,0,VALID,100,VALID,-0.0169808,VALID,19.7774,VALID,135,VALID,0.562891,
2009-06-20, 00:39:00,VALID,917.368,VALID,0,VALID,100,VALID,-0.0339617,VALID,19.7912,VALID,139,VALID,0.733613,
2009-06-20, 00:40:00,VALID,917.382,VALID,0,VALID,100,VALID,-0.0339617,VALID,19.8039,VALID,106,VALID,0.838844,
2009-06-20, 00:41:00,VALID,917.38,VALID,0,VALID,100,VALID,-0.0339617,VALID,19.7934,VALID,98,VALID,0.62718,
2009-06-20, 00:42:00,VALID,917.356,VALID,0,VALID,100,VALID,0,VALID,19.7874,VALID,94,VALID,0.603087,
2009-06-20, 00:43:00,VALID,917.33,VALID,0,VALID,100,VALID,0.0339617,VALID,19.761,VALID,87,VALID,0.472124,
2009-06-20, 00:44:00,VALID,917.295,VALID,0,VALID,100,VALID,0.0169808,VALID,19.7607,VALID,90,VALID,0.493304,
2009-06-20, 00:45:00,VALID,917.254,VALID,0,VALID,100,VALID,0.0339617,VALID,19.7677,VALID,92,VALID,0.647321,
2009-06-20, 00:46:00,VALID,917.232,VALID,0,VALID,100,VALID,-0.0169808,VALID,19.7809,VALID,106,VALID,0.868096,
2009-06-20, 00:47:00,VALID,917.224,VALID,0,VALID,100,VALID,0.0339617,VALID,19.7839,VALID,118,VALID,0.898624,
2009-06-20, 00:48:00,VALID,917.221,VALID,0,VALID,100,VALID,0.0169808,VALID,19.8096,VALID,118,VALID,0.924851,
2009-06-20, 00:49:00,VALID,917.221,VALID,0,VALID,100,VALID,0.0339617,VALID,19.8229,VALID,95,VALID,0.814732,
2009-06-20, 00:50:00,VALID,917.218,VALID,0,VALID,100,VALID,0.0339617,VALID,19.7934,VALID,90,VALID,0.820135,
2009-06-20, 00:51:00,VALID,917.221,VALID,0,VALID,100,VALID,0.0169808,VALID,19.7869,VALID,110,VALID,0.709666,
2009-06-20, 00:52:00,VALID,917.217,VALID,0,VALID,100,VALID,0.0679233,VALID,19.8159,VALID,123,VALID,0.754573,
2009-06-20, 00:53:00,VALID,917.218,VALID,0,VALID,100,VALID,0,VALID,19.8553,VALID,138,VALID,0.656631,
2009-06-20, 00:54:00,VALID,917.189,VALID,0,VALID,100,VALID,0.101885,VALID,19.8735,VALID,145,VALID,0.575763,
2009-06-20, 00:55:00,VALID,917.175,VALID,0,VALID,100,VALID,0.0509425,VALID,19.8875,VALID,155,VALID,0.714844,
2009-06-20, 00:56:00,VALID,917.167,VALID,0,VALID,100,VALID,0.0679233,VALID,19.8837,VALID,164,VALID,0.857922,
2009-06-20, 00:57:00,VALID,917.166,VALID,0,VALID,100,VALID,-0.0679233,VALID,19.892,VALID,164,VALID,0.857118,
2009-06-20, 00:58:00,VALID,917.172,VALID,0,VALID,100,VALID,-0.0679233,VALID,19.8858,VALID,161,VALID,0.821484,
2009-06-20, 00:59:00,VALID,917.183,VALID,0,VALID,100,VALID,-0.0849042,VALID,19.8401,VALID,150,VALID,0.801448,
2009-06-20, 01:00:00,VALID,917.178,VALID,0,VALID,100,VALID,-0.0679233,VALID,19.8141,VALID,148,VALID,0.524117,
2009-06-20, 01:01:00,VALID,917.173,VALID,0,VALID,100,VALID,-0.0679233,VALID,19.7268,VALID,148,VALID,0,
2009-06-20, 01:02:00,VALID,917.166,VALID,0,VALID,100,VALID,-0.0679233,VALID,19.6876,VALID,148,VALID,0,
2009-06-20, 01:03:00,VALID,917.167,VALID,0,VALID,100,VALID,-0.0509425,VALID,19.6781,VALID,148,VALID,0,
2009-06-20, 01:04:00,VALID,917.171,VALID,0,VALID,100,VALID,-0.0679233,VALID,19.6586,VALID,148,VALID,0,
2009-06-20, 01:05:00,VALID,917.173,VALID,0,VALID,100,VALID,-0.0679233,VALID,19.6456,VALID,148,VALID,0,
2009-06-20, 01:06:00,VALID,917.17,VALID,0,VALID,100,VALID,-0.101885,VALID,19.6199,VALID,148,VALID,0,
2009-06-20, 01:07:00,VALID,917.166,VALID,0,VALID,100,VALID,-0.0849042,VALID,19.571,VALID,148,VALID,0,
2009-06-20, 01:08:00,VALID,917.174,VALID,0,VALID,100,VALID,-0.0849042,VALID,19.5348,VALID,148,VALID,0,
2009-06-20, 01:09:00,VALID,917.174,VALID,0,VALID,100,VALID,-0.101885,VALID,19.5253,VALID,148,VALID,0,
2009-06-20, 01:10:00,VALID,917.18,VALID,0,VALID,100,VALID,-0.0849042,VALID,19.5381,VALID,148,VALID,0,
2009-06-20, 01:11:00,VALID,917.169,VALID,0,VALID,100,VALID,-0.0679233,VALID,19.5418,VALID,148,VALID,0,
2009-06-20, 01:12:00,VALID,917.165,VALID,0,VALID,99.9713,VALID,-0.0679233,VALID,19.4704,VALID,68,VALID,0.343164,
2009-06-20, 01:13:00,VALID,917.175,VALID,0,VALID,99.8917,VALID,-0.0679233,VALID,19.3636,VALID,46,VALID,0.851563,
2009-06-20, 01:14:00,VALID,917.169,VALID,0,VALID,100,VALID,-0.0339617,VALID,19.3823,VALID,46,VALID,0.398438,
2009-06-20, 01:15:00,VALID,917.161,VALID,0,VALID,100,VALID,-0.0169808,VALID,19.4402,VALID,46,VALID,0.406631,
2009-06-20, 01:16:00,VALID,917.152,VALID,0,VALID,100,VALID,-0.0679233,VALID,19.5029,VALID,46,VALID,0.575335,
2009-06-20, 01:17:00,VALID,917.145,VALID,0,VALID,100,VALID,-0.0849042,VALID,19.4929,VALID,46,VALID,0.0545099,
2009-06-20, 01:18:00,VALID,917.114,VALID,0,VALID,100,VALID,-0.0679233,VALID,19.3888,VALID,46,VALID,0,
2009-06-20, 01:19:00,VALID,917.098,VALID,0,VALID,100,VALID,-0.0339617,VALID,19.3694,VALID,46,VALID,0,
2009-06-20, 01:20:00,VALID,917.073,VALID,0,VALID,100,VALID,-0.0509425,VALID,19.3956,VALID,46,VALID,0,
2009-06-20, 01:21:00,VALID,917.055,VALID,0,VALID,100,VALID,-0.0679233,VALID,19.3853,VALID,46,VALID,0,
2009-06-20, 01:22:00,VALID,917.018,VALID,0,VALID,100,VALID,-0.0509425,VALID,19.3402,VALID,46,VALID,0,
2009-06-20, 01:23:00,VALID,917.002,VALID,0,VALID,100,VALID,-0.0169808,VALID,19.3007,VALID,46,VALID,0,
2009-06-20, 01:24:00,VALID,916.992,VALID,0,VALID,100,VALID,-0.0509425,VALID,19.2718,VALID,112,VALID,0,
2009-06-20, 01:25:00,VALID,916.988,VALID,0,VALID,100,VALID,-0.0679233,VALID,19.259,VALID,148,VALID,0,
2009-06-20, 01:26:00,VALID,916.976,VALID,0,VALID,100,VALID,0,VALID,19.2618,VALID,135,VALID,0,
2009-06-20, 01:27:00,VALID,916.973,VALID,0,VALID,100,VALID,-0.0509425,VALID,19.2783,VALID,134,VALID,0,
2009-06-20, 01:28:00,VALID,916.975,VALID,0,VALID,100,VALID,-0.101885,VALID,19.2917,VALID,133,VALID,0,
2009-06-20, 01:29:00,VALID,916.969,VALID,0,VALID,100,VALID,-0.0849042,VALID,19.301,VALID,127,VALID,0,
2009-06-20, 01:30:00,VALID,916.96,VALID,0,VALID,100,VALID,-0.0679233,VALID,19.2753,VALID,128,VALID,0.183594,
2009-06-20, 01:31:00,VALID,916.928,VALID,0,VALID,100,VALID,-0.0849042,VALID,19.2461,VALID,126,VALID,0.592634,
2009-06-20, 01:32:00,VALID,916.92,VALID,0,VALID,100,VALID,-0.0169808,VALID,19.1742,VALID,124,VALID,0.432106,
2009-06-20, 01:33:00,VALID,916.882,VALID,0,VALID,100,VALID,-0.0339617,VALID,19.1385,VALID,125,VALID,0.578906,
2009-06-20, 01:34:00,VALID,916.869,VALID,0,VALID,100,VALID,0,VALID,19.1191,VALID,127,VALID,0.83505,
2009-06-20, 01:35:00,VALID,916.841,VALID,0,VALID,100,VALID,-0.0509425,VALID,19.1353,VALID,127,VALID,0.937128,
2009-06-20, 01:36:00,VALID,916.825,VALID,0,VALID,100,VALID,-0.0339617,VALID,19.1283,VALID,125,VALID,0.841346,
2009-06-20, 01:37:00,VALID,916.795,VALID,0,VALID,100,VALID,-0.0169808,VALID,19.1058,VALID,120,VALID,0.76456,
2009-06-20, 01:38:00,VALID,916.788,VALID,0,VALID,100,VALID,-0.0339617,VALID,19.0964,VALID,120,VALID,0.820499,
2009-06-20, 01:39:00,VALID,916.78,VALID,0,VALID,100,VALID,0,VALID,19.1061,VALID,121,VALID,0.795541,
2009-06-20, 01:40:00,VALID,916.779,VALID,0,VALID,100,VALID,-0.0679233,VALID,19.1056,VALID,122,VALID,0.898247,
2009-06-20, 01:41:00,VALID,916.785,VALID,0,VALID,100,VALID,0,VALID,19.0996,VALID,125,VALID,0.996354,
2009-06-20, 01:42:00,VALID,916.765,VALID,0,VALID,100,VALID,0,VALID,19.0804,VALID,130,VALID,0.889137,
2009-06-20, 01:43:00,VALID,916.758,VALID,0,VALID,100,VALID,-0.0339617,VALID,19.0375,VALID,139,VALID,0.54184,
2009-06-20, 01:44:00,VALID,916.748,VALID,0,VALID,100,VALID,-0.0849042,VALID,19.0185,VALID,118,VALID,0.699396,
2009-06-20, 01:45:00,VALID,916.734,VALID,0,VALID,100,VALID,-0.0339617,VALID,19.0315,VALID,99,VALID,0.900436,
2009-06-20, 01:46:00,VALID,916.723,VALID,0,VALID,100,VALID,-0.0679233,VALID,19.012,VALID,99,VALID,0.527876,
2009-06-20, 01:47:00,VALID,916.709,VALID,0,VALID,100,VALID,-0.0339617,VALID,19.0028,VALID,110,VALID,0.592748,
2009-06-20, 01:48:00,VALID,916.7,VALID,0,VALID,100,VALID,-0.0679233,VALID,18.9893,VALID,121,VALID,0.467416,
2009-06-20, 01:49:00,VALID,916.68,VALID,0,VALID,100,VALID,-0.0509425,VALID,19.0058,VALID,123,VALID,0.352385,
2009-06-20, 01:50:00,VALID,916.663,VALID,0,VALID,100,VALID,-0.0849042,VALID,19.019,VALID,124,VALID,0.291424,
2009-06-20, 01:51:00,VALID,916.638,VALID,0,VALID,100,VALID,-0.0679233,VALID,19.0382,VALID,138,VALID,0.720982,
2009-06-20, 01:52:00,VALID,916.632,VALID,0,VALID,100,VALID,-0.0509425,VALID,19.0277,VALID,135,VALID,0.278764,
2009-06-20, 01:53:00,VALID,916.628,VALID,0,VALID,100,VALID,-0.101885,VALID,19.0285,VALID,134,VALID,0.452592,
2009-06-20, 01:54:00,VALID,916.627,VALID,0,VALID,100,VALID,-0.101885,VALID,19.013,VALID,138,VALID,0.539993,
2009-06-20, 01:55:00,VALID,916.616,VALID,0,VALID,100,VALID,-0.101885,VALID,19.0095,VALID,152,VALID,0.589844,
2009-06-20, 01:56:00,VALID,916.61,VALID,0,VALID,100,VALID,-0.0339617,VALID,19.0252,VALID,153,VALID,0.680596,
2009-06-20, 01:57:00,VALID,916.596,VALID,0,VALID,100,VALID,-0.0679233,VALID,19.0185,VALID,148,VALID,0.711293,
2009-06-20, 01:58:00,VALID,916.599,VALID,0,VALID,100,VALID,-0.0509425,VALID,19.0315,VALID,146,VALID,0.766992,
2009-06-20, 01:59:00,VALID,916.61,VALID,0,VALID,100,VALID,-0.0509425,VALID,19.0447,VALID,145,VALID,0.498998,
2009-06-20, 02:00:00,VALID,916.599,VALID,0,VALID,100,VALID,-0.0339617,VALID,19.0384,VALID,149,VALID,0.591273,
2009-06-20, 02:01:00,VALID,916.593,VALID,0,VALID,100,VALID,0,VALID,18.9955,VALID,134,VALID,0.567073,
2009-06-20, 02:02:00,VALID,916.582,VALID,0,VALID,100,VALID,-0.0679233,VALID,18.9796,VALID,122,VALID,0.835156,
2009-06-20, 02:03:00,VALID,916.59,VALID,0,VALID,100,VALID,-0.0849042,VALID,18.9861,VALID,111,VALID,0.877548,
2009-06-20, 02:04:00,VALID,916.594,VALID,0,VALID,100,VALID,-0.0679233,VALID,18.9564,VALID,113,VALID,0.950945,
2009-06-20, 02:05:00,VALID,916.615,VALID,0,VALID,100,VALID,-0.0679233,VALID,19.0285,VALID,114,VALID,0.876143,
2009-06-20, 02:06:00,VALID,916.631,VALID,0,VALID,100,VALID,-0.0679233,VALID,19.035,VALID,114,VALID,0.866629,
2009-06-20, 02:07:00,VALID,916.632,VALID,0,VALID,100,VALID,-0.0509425,VALID,19.0549,VALID,113,VALID,0.955669,
2009-06-20, 02:08:00,VALID,916.648,VALID,0,VALID,100,VALID,-0.101885,VALID,19.0709,VALID,108,VALID,0.52846,
2009-06-20, 02:09:00,VALID,916.66,VALID,0,VALID,100,VALID,-0.0679233,VALID,19.0804,VALID,117,VALID,0.784339,
2009-06-20, 02:10:00,VALID,916.663,VALID,0,VALID,100,VALID,-0.0509425,VALID,19.1131,VALID,124,VALID,0.725,
2009-06-20, 02:11:00,VALID,916.66,VALID,0,VALID,100,VALID,-0.101885,VALID,19.1323,VALID,124,VALID,0.90625,
2009-06-20, 02:12:00,VALID,916.666,VALID,0,VALID,100,VALID,-0.0679233,VALID,19.1872,VALID,124,VALID,0.811198,
2009-06-20, 02:13:00,VALID,916.656,VALID,0,VALID,100,VALID,-0.118866,VALID,19.2331,VALID,122,VALID,0.852805,
2009-06-20, 02:14:00,VALID,916.664,VALID,0,VALID,100,VALID,-0.0849042,VALID,19.269,VALID,121,VALID,0.969308,
2009-06-20, 02:15:00,VALID,916.651,VALID,0,VALID,100,VALID,-0.101885,VALID,19.2848,VALID,123,VALID,0.957209,
2009-06-20, 02:16:00,VALID,916.649,VALID,0,VALID,100,VALID,-0.0509425,VALID,19.3072,VALID,127,VALID,1.03059,
2009-06-20, 02:17:00,VALID,916.632,VALID,0,VALID,100,VALID,-0.0849042,VALID,19.3402,VALID,123,VALID,1.14662,
2009-06-20, 02:18:00,VALID,916.63,VALID,0,VALID,100,VALID,-0.0849042,VALID,19.3559,VALID,124,VALID,1.00994,
2009-06-20, 02:19:00,VALID,916.605,VALID,0,VALID,100,VALID,-0.0849042,VALID,19.3596,VALID,117,VALID,1.11031,
2009-06-20, 02:20:00,VALID,916.605,VALID,0,VALID,100,VALID,-0.0679233,VALID,19.3372,VALID,112,VALID,1.02217,
2009-06-20, 02:21:00,VALID,916.592,VALID,0,VALID,100,VALID,-0.0679233,VALID,19.2915,VALID,102,VALID,0.854226,
2009-06-20, 02:22:00,VALID,916.597,VALID,0,VALID,100,VALID,-0.0339617,VALID,19.2556,VALID,102,VALID,1.04487,
2009-06-20, 02:23:00,VALID,916.591,VALID,0,VALID,100,VALID,-0.101885,VALID,19.2101,VALID,107,VALID,0.91654,
2009-06-20, 02:24:00,VALID,916.589,VALID,0,VALID,100,VALID,-0.101885,VALID,19.1874,VALID,104,VALID,0.932977,
2009-06-20, 02:25:00,VALID,916.572,VALID,0,VALID,100,VALID,-0.0849042,VALID,19.1682,VALID,100,VALID,0.865007,
2009-06-20, 02:26:00,VALID,916.567,VALID,0,VALID,100,VALID,-0.0849042,VALID,19.1255,VALID,108,VALID,0.9,
2009-06-20, 02:27:00,VALID,916.538,VALID,0,VALID,100,VALID,-0.0169808,VALID,19.1183,VALID,124,VALID,1.20926,
2009-06-20, 02:28:00,VALID,916.509,VALID,0,VALID,100,VALID,-0.0339617,VALID,19.0991,VALID,122,VALID,1.39918,
2009-06-20, 02:29:00,VALID,916.487,VALID,0,VALID,100,VALID,-0.0169808,VALID,19.0794,VALID,128,VALID,1.21723,
2009-06-20, 02:30:00,VALID,916.457,VALID,0,VALID,100,VALID,-0.0339617,VALID,19.041,VALID,130,VALID,1.28087,
2009-06-20, 02:31:00,VALID,916.432,VALID,0,VALID,100,VALID,-0.0169808,VALID,19.0085,VALID,131,VALID,1.30977,
2009-06-20, 02:32:00,VALID,916.416,VALID,0,VALID,100,VALID,-0.0339617,VALID,18.9564,VALID,109,VALID,1.05669,
2009-06-20, 02:33:00,VALID,916.396,VALID,0,VALID,100,VALID,-0.0679233,VALID,18.8915,VALID,111,VALID,1.1503,
2009-06-20, 02:34:00,VALID,916.392,VALID,0,VALID,100,VALID,-0.0509425,VALID,18.8656,VALID,103,VALID,1.24546,
2009-06-20, 02:35:00,VALID,916.386,VALID,0,VALID,100,VALID,-0.0679233,VALID,18.8299,VALID,113,VALID,1.32541,
2009-06-20, 02:36:00,VALID,916.38,VALID,0,VALID,100,VALID,-0.0339617,VALID,18.8331,VALID,119,VALID,1.14043,
2009-06-20, 02:37:00,VALID,916.392,VALID,0,VALID,100,VALID,-0.0169808,VALID,18.8102,VALID,130,VALID,1.40091,
2009-06-20, 02:38:00,VALID,916.386,VALID,0,VALID,100,VALID,-0.0169808,VALID,18.7937,VALID,127,VALID,1.35683,
2009-06-20, 02:39:00,VALID,916.393,VALID,0,VALID,100,VALID,-0.0509425,VALID,18.7807,VALID,128,VALID,1.36892,
2009-06-20, 02:40:00,VALID,916.392,VALID,0,VALID,100,VALID,-0.0339617,VALID,18.7747,VALID,123,VALID,1.20387,
2009-06-20, 02:41:00,VALID,916.386,VALID,0,VALID,100,VALID,-0.0169808,VALID,18.7553,VALID,127,VALID,1.09133,
2009-06-20, 02:42:00,VALID,916.386,VALID,0,VALID,100,VALID,-0.0339617,VALID,18.749,VALID,126,VALID,1.02725,
2009-06-20, 02:43:00,VALID,916.381,VALID,0,VALID,100,VALID,-0.0169808,VALID,18.7353,VALID,123,VALID,1.02361,
2009-06-20, 02:44:00,VALID,916.379,VALID,0,VALID,100,VALID,-0.0339617,VALID,18.7358,VALID,129,VALID,1.06193,
2009-06-20, 02:45:00,VALID,916.352,VALID,0,VALID,100,VALID,-0.0509425,VALID,18.7163,VALID,141,VALID,0.990699,
2009-06-20, 02:46:00,VALID,916.342,VALID,0,VALID,100,VALID,-0.0339617,VALID,18.7261,VALID,149,VALID,1.07107,
2009-06-20, 02:47:00,VALID,916.33,VALID,0,VALID,100,VALID,-0.0339617,VALID,18.7293,VALID,151,VALID,1.54078,
2009-06-20, 02:48:00,VALID,916.319,VALID,0,VALID,100,VALID,-0.0509425,VALID,18.7096,VALID,148,VALID,1.34468,
2009-06-20, 02:49:00,VALID,916.301,VALID,0,VALID,100,VALID,0,VALID,18.6902,VALID,135,VALID,1.19327,
2009-06-20, 02:50:00,VALID,916.294,VALID,0,VALID,100,VALID,-0.0169808,VALID,18.6739,VALID,129,VALID,1.30509,
2009-06-20, 02:51:00,VALID,916.293,VALID,0,VALID,100,VALID,-0.0169808,VALID,18.6512,VALID,121,VALID,1.23121,
2009-06-20, 02:52:00,VALID,916.298,VALID,0,VALID,100,VALID,0,VALID,18.638,VALID,120,VALID,1.1468,
2009-06-20, 02:53:00,VALID,916.31,VALID,0,VALID,100,VALID,0,VALID,18.6216,VALID,111,VALID,0.971768,
2009-06-20, 02:54:00,VALID,916.304,VALID,0,VALID,100,VALID,0,VALID,18.6315,VALID,110,VALID,0.941406,
2009-06-20, 02:55:00,VALID,916.313,VALID,0,VALID,100,VALID,0,VALID,18.6478,VALID,115,VALID,0.801897,
2009-06-20, 02:56:00,VALID,916.31,VALID,0,VALID,100,VALID,0,VALID,18.6705,VALID,118,VALID,0.725446,
2009-06-20, 02:57:00,VALID,916.3,VALID,0,VALID,100,VALID,0,VALID,18.6832,VALID,115,VALID,0.689174,
2009-06-20, 02:58:00,VALID,916.309,VALID,0,VALID,100,VALID,0,VALID,18.7126,VALID,118,VALID,0.667492,
2009-06-20, 02:59:00,VALID,916.286,VALID,0,VALID,100,VALID,0,VALID,18.7356,VALID,125,VALID,0.677379,
2009-06-20, 03:00:00,VALID,916.285,VALID,0,VALID,100,VALID,0,VALID,18.7451,VALID,139,VALID,0.810865,
2009-06-20, 03:01:00,VALID,916.28,VALID,0,VALID,100,VALID,0,VALID,18.7585,VALID,137,VALID,0.9375,
2009-06-20, 03:02:00,VALID,916.247,VALID,0,VALID,100,VALID,-0.0169808,VALID,18.7877,VALID,138,VALID,0.811523,
2009-06-20, 03:03:00,VALID,916.232,VALID,0,VALID,100,VALID,0,VALID,18.7909,VALID,141,VALID,0.952237,
2009-06-20, 03:04:00,VALID,916.202,VALID,0,VALID,100,VALID,-0.0169808,VALID,18.8104,VALID,139,VALID,0.987233,
2009-06-20, 03:05:00,VALID,916.187,VALID,0,VALID,100,VALID,-0.0509425,VALID,18.8459,VALID,132,VALID,1.02288,
2009-06-20, 03:06:00,VALID,916.174,VALID,0,VALID,100,VALID,-0.0679233,VALID,18.8688,VALID,136,VALID,1.00874,
2009-06-20, 03:07:00,VALID,916.155,VALID,0,VALID,100,VALID,-0.0679233,VALID,18.8945,VALID,133,VALID,1.29669,
2009-06-20, 03:08:00,VALID,916.148,VALID,0,VALID,100,VALID,0,VALID,18.9332,VALID,133,VALID,1.36433,
2009-06-20, 03:09:00,VALID,916.139,VALID,0,VALID,100,VALID,0,VALID,18.9594,VALID,132,VALID,1.57771,
2009-06-20, 03:10:00,VALID,916.128,VALID,0,VALID,100,VALID,-0.0169808,VALID,18.9791,VALID,132,VALID,1.21763,
2009-06-20, 03:11:00,VALID,916.129,VALID,0,VALID,100,VALID,-0.0849042,VALID,18.9791,VALID,131,VALID,1.28325,
2009-06-20, 03:12:00,VALID,916.106,VALID,0,VALID,100,VALID,-0.0169808,VALID,18.9788,VALID,137,VALID,1.36828,
2009-06-20, 03:13:00,VALID,916.098,VALID,0,VALID,100,VALID,-0.0679233,VALID,18.9921,VALID,132,VALID,1.53507,
2009-06-20, 03:14:00,VALID,916.079,VALID,0,VALID,100,VALID,-0.0169808,VALID,18.9816,VALID,135,VALID,1.4834,
2009-06-20, 03:15:00,VALID,916.067,VALID,0,VALID,100,VALID,-0.0339617,VALID,18.9986,VALID,141,VALID,1.19844,
2009-06-20, 03:16:00,VALID,916.069,VALID,0,VALID,100,VALID,0,VALID,18.9881,VALID,138,VALID,1.2776,
2009-06-20, 03:17:00,VALID,916.068,VALID,0,VALID,100,VALID,-0.0169808,VALID,19.0078,VALID,133,VALID,1.55878,
2009-06-20, 03:18:00,VALID,916.083,VALID,0,VALID,100,VALID,-0.0169808,VALID,19.021,VALID,131,VALID,1.38076,
2009-06-20, 03:19:00,VALID,916.09,VALID,0,VALID,100,VALID,0,VALID,19.0273,VALID,132,VALID,1.34193,
2009-06-20, 03:20:00,VALID,916.101,VALID,0,VALID,100,VALID,-0.0169808,VALID,19.0307,VALID,132,VALID,1.19785,
2009-06-20, 03:21:00,VALID,916.107,VALID,0,VALID,100,VALID,-0.0339617,VALID,19.018,VALID,146,VALID,1.04107,
2009-06-20, 03:22:00,VALID,916.105,VALID,0,VALID,100,VALID,0,VALID,18.9983,VALID,141,VALID,1.07236,
2009-06-20, 03:23:00,VALID,916.109,VALID,0,VALID,100,VALID,0,VALID,18.9983,VALID,151,VALID,0.985156,
2009-06-20, 03:24:00,VALID,916.098,VALID,0,VALID,100,VALID,-0.0339617,VALID,18.9883,VALID,148,VALID,1.00291,
2009-06-20, 03:25:00,VALID,916.089,VALID,0,VALID,100,VALID,-0.0339617,VALID,18.9851,VALID,148,VALID,0.629542,
2009-06-20, 03:26:00,VALID,916.077,VALID,0,VALID,100,VALID,-0.0169808,VALID,18.9856,VALID,145,VALID,0.853379,
2009-06-20, 03:27:00,VALID,916.079,VALID,0,VALID,100,VALID,0,VALID,18.9788,VALID,143,VALID,0.942383,
2009-06-20, 03:28:00,VALID,916.09,VALID,0,VALID,100,VALID,-0.0169808,VALID,18.9786,VALID,134,VALID,0.99814,
2009-06-20, 03:29:00,VALID,916.091,VALID,0,VALID,100,VALID,0.0169808,VALID,18.9791,VALID,139,VALID,1.11612,
2009-06-20, 03:30:00,VALID,916.078,VALID,0,VALID,100,VALID,0.0339617,VALID,18.9626,VALID,133,VALID,1.07249,
2009-06-20, 03:31:00,VALID,916.08,VALID,0,VALID,100,VALID,0.0169808,VALID,18.9654,VALID,133,VALID,1.11014,
2009-06-20, 03:32:00,VALID,916.085,VALID,0,VALID,100,VALID,0,VALID,18.9791,VALID,129,VALID,0.97207,
2009-06-20, 03:33:00,VALID,916.085,VALID,0,VALID,100,VALID,0.0509425,VALID,18.9559,VALID,129,VALID,0.940662,
2009-06-20, 03:34:00,VALID,916.105,VALID,0,VALID,100,VALID,0,VALID,18.926,VALID,134,VALID,0.979802,
2009-06-20, 03:35:00,VALID,916.111,VALID,0,VALID,100,VALID,0.0339617,VALID,18.9068,VALID,135,VALID,0.848544,
2009-06-20, 03:36:00,VALID,916.119,VALID,0,VALID,100,VALID,0.0509425,VALID,18.8678,VALID,131,VALID,0.994922,
2009-06-20, 03:37:00,VALID,916.12,VALID,0,VALID,100,VALID,0,VALID,18.8257,VALID,130,VALID,1.02131,
2009-06-20, 03:38:00,VALID,916.119,VALID,0,VALID,100,VALID,0.0339617,VALID,18.8097,VALID,130,VALID,1.07413,
2009-06-20, 03:39:00,VALID,916.108,VALID,0,VALID,100,VALID,0.0849042,VALID,18.8065,VALID,127,VALID,1.15025,
2009-06-20, 03:40:00,VALID,916.117,VALID,0,VALID,100,VALID,0,VALID,18.8004,VALID,138,VALID,0.920015,